Regional Weather Roundup
Issued by NWS

Home | Current Version | Previous Version | Text Only | Print | Product List | Glossary On
Versions: 1 2 3 4 5 6 7 8 9 10 11 12 13 14 15 16 17 18 19 20 21 22 23 24 25 26 27 28 29 30 31 32 33 34 35 36 37 38 39 40 41 42 43 44 45 46 47 48 49 50
000
ASUS43 KBIS 231831
RWRND
NORTH DAKOTA REGIONAL WEATHER ROUNDUP
NATIONAL WEATHER SERVICE EASTERN NORTH DAKOTA/GRAND FORKS ND
1200 PM CST FRI FEB 23 2018

  NOTE: "FAIR" INDICATES FEW OR NO CLOUDS BELOW 12,000 FEET WITH NO
  SIGNIFICANT WEATHER AND/OR OBSTRUCTIONS TO VISIBILITY.

NDZ001>003-009>011-017-231900-
...NORTHWEST NORTH DAKOTA...

CITY           SKY/WX    TMP DP  RH WIND       PRES   REMARKS
WILLISTON      FAIR       4  -4  69 SW10      30.20F WCI -11
6HR MIN TEMP:  -5; 6HR MAX TEMP:   2; 6HR PCP: TRACE;

MINOT          FAIR      14   5  67 SW15      30.18F WCI  -1
MINOT AFB      FAIR      14   6  71 W13       30.17S WCI  -1
6HR MIN TEMP:  -6; 6HR MAX TEMP:  14; 6HR PCP: TRACE;

$$

NDZ018>021-031>035-040>046-231900-
...SOUTHWEST NORTH DAKOTA...

CITY           SKY/WX    TMP DP  RH WIND       PRES   REMARKS
BISMARCK       FAIR      14   3  61 W8        30.27S WCI   3
DICKINSON      FAIR       9  -2  61 W6        30.16S WCI  -1
GARRISON         N/A      8   4  83 W8        30.22R WCI  -4
HETTINGER        N/A      5  -4  66 W8        30.20S WCI  -8
$$

NDZ004>008-012>016-024-026-027-054-231900-
...NORTHEAST NORTH DAKOTA...

CITY           SKY/WX    TMP DP  RH WIND       PRES   REMARKS
GRAND FORKS    FAIR      14   6  70 NW14      30.21R WCI  -1
GRAND FORKS AF FAIR      15   5  64 NW14      30.20S WCI   0
DEVILS LAKE    FAIR       8   3  80 W15       30.20R WCI  -9
$$

NDZ022-023-025-028>030-036>039-047>053-231900-
...SOUTHEAST NORTH DAKOTA...

CITY           SKY/WX    TMP DP  RH WIND       PRES   REMARKS
JAMESTOWN      FAIR      12   5  73 NW13      30.22R WCI  -3
FARGO          FAIR      17   8  67 W12       30.23R WCI   4
WAHPETON       FAIR      19  12  73 NW10      30.24S WCI   8
$$



USA.gov is the U.S. government's official web portal to all federal, state and local government web resources and services.